Weather History for KVRB - July, 2013

Change the Weather History Date:

Thursday, July 4, 2013

  Actual Average Record
Temperature  
Mean Temperature 81 °F 81 °F  
Max Temperature 88 °F 90 °F 95 °F (1979)
Min Temperature 73 °F 73 °F 66 °F (1975)
Degree Days  
Heating Degree Days 0 0  
Month to date heating degree days 0 0  
Since 1 June heating degree days 0 0  
Since 1 July heating degree days 0 0  
Cooling Degree Days 16 16  
Month to date cooling degree days 65 64  
Year to date cooling degree days 1477 1326  
Since 1 June cooling degree days 570 520  
Growing Degree Days 30 (Base 50)    
Moisture  
Dew Point 74 °F    
Average Humidity 84    
Maximum Humidity 100    
Minimum Humidity 68    
Precipitation  
Precipitation 0.19 in 0.19 in 1.96 in (1960)
Month to date precipitation 1.11 0.79  
Year to date precipitation 21.82 22.83  
Sea Level Pressure  
Sea Level Pressure 30.14 in    
Wind  
Wind Speed 11 mph (ESE)    
Max Wind Speed 23 mph    
Max Gust Speed 32 mph    
Visibility 10 miles    
Events Thunderstorm    
T = Trace of Precipitation, MM = Missing Value Source: NWS Daily Summary

Daily Weather History Graph

Daily Weather History Graph

Search for Another Location

Airport or City:

Trip Planner

Search our weather history database for the weather conditions in past years. The results will help you decide how hot, cold, wet, or windy it might be!

Date:

Astronomy

Jul. 04, 2013 Rise Set
Actual Time 6:30 AM EDT 8:21 PM EDT
Civil Twilight 6:04 AM EDT 8:47 PM EDT
Nautical Twilight 5:32 AM EDT 9:19 PM EDT
Astronomical Twilight 4:58 AM EDT 9:53 PM EDT
Moon 3:39 AM EDT (7/4) 5:29 PM EDT (7/4)
Length of Visible Light 14h 43m
Length of Day
13h 50m
Waning Crescent, 11% of the Moon is Illuminated
Jul 4
Waning Crescent
Jul 8
New
Jul 15
First Quarter
Jul 22
Full
Jul 29
Last Quarter

Hourly Weather History & Observations

Time (EDT) Temp. Heat Index Dew Point Humidity Pressure Visibility Wind Dir Wind Speed Gust Speed Precip Events Conditions
12:53 AM 77.0 °F - 73.9 °F 90% 30.15 in 10.0 mi SSE 3.5 mph - N/A   Clear
1:53 AM 75.9 °F - 73.9 °F 94% 30.14 in 10.0 mi East 4.6 mph - N/A   Partly Cloudy
2:53 AM 77.0 °F - 73.9 °F 90% 30.12 in 10.0 mi SE 3.5 mph - N/A   Mostly Cloudy
3:40 AM 75.2 °F - 73.4 °F 94% 30.13 in 2.5 mi ESE 13.8 mph 17.3 mph 0.12 in Thunderstorm Mostly Cloudy
3:53 AM 73.9 °F - 71.1 °F 91% 30.11 in 6.0 mi ESE 8.1 mph - 0.18 in Thunderstorm Overcast
4:07 AM 73.4 °F - 71.6 °F 94% 30.11 in 10.0 mi SE 4.6 mph - N/A   Overcast
4:14 AM 73.4 °F - 71.6 °F 94% 30.11 in 10.0 mi ESE 3.5 mph - N/A   Overcast
4:53 AM 73.0 °F - 72.0 °F 96% 30.11 in 10.0 mi East 3.5 mph - N/A   Scattered Clouds
5:53 AM 75.0 °F - 73.9 °F 96% 30.11 in 10.0 mi East 4.6 mph - N/A   Clear
6:53 AM 75.9 °F - 75.0 °F 97% 30.12 in 10.0 mi ESE 4.6 mph - N/A   Clear
7:53 AM 79.0 °F - 75.0 °F 88% 30.13 in 10.0 mi ESE 10.4 mph - N/A   Clear
8:53 AM 82.0 °F 88.6 °F 75.0 °F 79% 30.14 in 10.0 mi ESE 15.0 mph - N/A   Clear
9:53 AM 84.0 °F 91.9 °F 75.0 °F 74% 30.15 in 10.0 mi SE 16.1 mph 21.9 mph N/A   Clear
10:53 AM 86.0 °F 95.1 °F 75.0 °F 70% 30.17 in 10.0 mi SE 13.8 mph 25.3 mph N/A   Clear
11:53 AM 86.0 °F 96.0 °F 75.9 °F 72% 30.16 in 10.0 mi SE 16.1 mph 25.3 mph N/A   Clear
12:53 PM 88.0 °F 97.5 °F 75.0 °F 65% 30.16 in 10.0 mi ESE 18.4 mph 24.2 mph N/A   Clear
1:53 PM 87.1 °F 96.3 °F 75.0 °F 67% 30.15 in 10.0 mi SE 18.4 mph 25.3 mph N/A   Clear
2:53 PM 87.1 °F 97.3 °F 75.9 °F 69% 30.14 in 10.0 mi ESE 15.0 mph 21.9 mph N/A   Clear
3:53 PM 87.1 °F 97.3 °F 75.9 °F 69% 30.12 in 10.0 mi ESE 19.6 mph 23.0 mph N/A   Clear
4:53 PM 84.0 °F 91.9 °F 75.0 °F 74% 30.12 in 10.0 mi East 19.6 mph 32.2 mph N/A   Mostly Cloudy
5:53 PM 84.9 °F 94.1 °F 75.9 °F 74% 30.11 in 10.0 mi ESE 15.0 mph - N/A   Clear
6:53 PM 81.0 °F 85.8 °F 73.0 °F 77% 30.13 in 10.0 mi ESE 12.7 mph - N/A   Partly Cloudy
7:53 PM 80.1 °F 84.5 °F 73.9 °F 81% 30.14 in 10.0 mi ESE 8.1 mph - N/A   Clear
8:53 PM 79.0 °F - 75.0 °F 88% 30.15 in 10.0 mi ESE 8.1 mph - N/A   Clear
9:53 PM 79.0 °F - 75.0 °F 88% 30.17 in 10.0 mi ESE 6.9 mph - N/A   Clear
10:53 PM 78.1 °F - 75.0 °F 90% 30.17 in 10.0 mi East 4.6 mph - N/A   Clear
11:41 PM 78.8 °F - 75.2 °F 89% 30.18 in 10.0 mi ESE 8.1 mph - N/A Thunderstorm Thunderstorm
11:53 PM 79.0 °F - 75.0 °F 88% 30.18 in 10.0 mi ESE 11.5 mph 19.6 mph N/A Thunderstorm Partly Cloudy